Вернуться в каталог

STARLINK-2695

АктивенСвязьVLEO
NORAD 48644·PAYLOAD·🇺🇸 United States

Запущен May 26, 2021 с Cape Canaveral Space Force Station

Loading…

Ближайшие Пролёты (ближайшие 24 часа)

TLE

СвежийSource: CelesTrak SupGP

Эпоха: Sep 14, 2026, 20:24 UTC

1 48644C 21044G   26257.85048611 -.00030566  00000+0 -98293-3 0  2574
2 48644  53.1577 313.7358 0001267  76.6041 210.8097 15.31717231    15

Отслеживайте STARLINK-2695 в реальном времени с AllMySat

Download on the App Store